Regional Weather Roundup
Issued by NWS

Home | Current Version | Previous Version | Text Only | Print | Product List | Glossary Off
Versions: 1 2 3 4 5 6 7 8 9 10 11 12 13 14 15 16 17 18 19 20 21 22 23 24 25 26 27 28 29 30 31 32 33 34 35 36 37 38 39 40 41 42 43 44 45 46 47 48 49 50

000
ASUS43 KMKX 041521
RWRWI

WISCONSIN REGIONAL WEATHER ROUNDUP
NATIONAL WEATHER SERVICE MILWAUKEE/SULLIVAN WI
1000 AM CDT MON MAY 04 2015

NOTE: "FAIR" INDICATES FEW OR NO CLOUDS BELOW 12,000 FEET WITH NO
SIGNIFICANT WEATHER AND/OR OBSTRUCTIONS TO VISIBILITY.

WIZ001-002-006>008-014>016-023>028-041600-
NORTHWEST WISCONSIN

CITY           SKY/WX    TMP DP  RH WIND       PRES   REMARKS
SUPERIOR ARPT  SUNNY     59  37  43 N7        30.17S
ASHLAND        SUNNY     60  39  45 NW10      30.17R
HAYWARD        SUNNY     58  35  42 N10       30.15S
SIREN          SUNNY     60  33  35 N8        30.16S
CUMBERLAND     SUNNY     59  32  36 N12G17    30.14S
RICE LAKE      SUNNY     60  32  35 N14       30.16S
CHETEK         SUNNY     59  37  43 N9G17     30.15R
LADYSMITH      SUNNY     59  36  42 NW13      30.14S
EAU CLAIRE     SUNNY     60  36  40 N13       30.13R
MENOMONIE      SUNNY     61  34  36 N15G21    30.14S
NEW RICHMOND   SUNNY     60  35  39 NE15      30.16R
OSCEOLA        SUNNY     61  32  34 N13G21    30.18S
$$

WIZ003>005-009-010-017-018-041600-
NORTH CENTRAL WISCONSIN

CITY           SKY/WX    TMP DP  RH WIND       PRES   REMARKS
MANITOWISH WTR SUNNY     55  35  48 N9        30.13R
ARBOR VITAE    SUNNY     57  37  46 NW12      30.12R
WOODRUFF       SUNNY     57  37  46 NW12      30.12R
RHINELANDER    SUNNY     57  39  51 N9        30.11R
EAGLE RIVER    SUNNY     57  35  42 N13       30.11R
LAND O LAKES   SUNNY     55  36  47 N12G17    30.13R
PHILLIPS       SUNNY     56  38  51 N9        30.12R
TOMAHAWK       SUNNY     56  39  52 N10G16    30.12R
MEDFORD        SUNNY     57  41  54 N10       30.12R
MERRILL        SUNNY     58  42  54 N5        30.10R
$$

WIZ029-030-035-036-043>047-041600-
CENTRAL WISCONSIN

CITY           SKY/WX    TMP DP  RH WIND       PRES   REMARKS
WAUSAU         SUNNY     61  40  45 N8        30.09R
MOSINEE        SUNNY     61  41  48 N8        30.11R
MARSHFIELD     SUNNY     63  40  42 N10       30.11R
STEVENS POINT  SUNNY     61  41  47 N9G16     30.10R
WAUPACA        MOSUNNY   66  47  50 N9        30.08R
WAUTOMA        MOSUNNY   65  47  52 N12       30.08R
WISC RAPIDS      N/A     64  39  39 N16       30.10R
CAMP DOUGLAS   MOSUNNY   63  50  63 N10       30.10R
$$

WIZ011>013-019>022-031-037>040-048>050-041600-
NORTHEAST WISCONSIN

CITY           SKY/WX    TMP DP  RH WIND       PRES   REMARKS
ANTIGO         SUNNY     58  44  58 N9        30.09S
SHAWANO        MOSUNNY   66  42  42 N10       30.07R
OCONTO         MOSUNNY   65  42  43 N9        30.06R
STURGEON BAY   PTSUNNY   61  41  48 N14       30.09R
GREEN BAY      MOSUNNY   67  44  43 N12       30.05R
MANITOWOC      CLOUDY    65  47  52 N13       30.05R
APPLETON       MOSUNNY   63  43  48 N12       30.06R
CLINTONVILLE   MOSUNNY   63  46  55 N7        30.07R
OSHKOSH        PTSUNNY   65  54  67 NE12      30.05R
$$

WIZ032>034-041-042-053>061-041600-
SOUTHWEST WISCONSIN

CITY           SKY/WX    TMP DP  RH WIND       PRES   REMARKS
LA CROSSE      SUNNY     66  39  37 N12       30.11R
SPARTA         SUNNY     63  42  45 N9        30.12R
VIROQUA        SUNNY     60  48  64 N13       30.11R
BOSCOBEL       PTSUNNY   65  56  72 VRB3      30.09R
PRAIRIE DU CHI CLOUDY    61  57  87 CALM      30.09R
PLATTEVILLE    PTSUNNY   64  58  81 N7        30.08S
$$

WIZ056-057-062-063-064-067-068-041600-
SOUTH CENTRAL WISCONSIN

CITY           SKY/WX    TMP DP  RH WIND       PRES   REMARKS
REEDSBURG      MOSUNNY   64  55  73 N7        30.08R
BARABOO/DELLS  NOT AVBL
LONE ROCK      MOSUNNY   66  54  65 N5        30.09R
MINERAL POINT  CLOUDY    63  57  82 N8        30.09R
MADISON        CLOUDY    64  57  78 N7        30.07R
MIDDLETON      CLOUDY    65  57  74 N8        30.08R
WATERTOWN      CLOUDY    62  60  95 W6        30.07R
MONROE         CLOUDY    63  57  82 CALM      30.09R
JANESVILLE     MOSUNNY   64  59  82 CALM      30.08R
$$

WIZ051-052-058>065-066-070>072-041600-
SOUTHEAST WISCONSIN

CITY           SKY/WX    TMP DP  RH WIND       PRES   REMARKS
MILWAUKEE      CLOUDY    68  54  60 W7        30.05R
WAUKESHA       PTSUNNY   63  55  77 W6        30.08R
MILWAUKEE/TIMM PTSUNNY   64  55  72 N10       30.06R
RACINE         CLOUDY    67  55  65 NW6       30.07R
BURLINGTON     CLOUDY    63  56  80 W7        30.08R
KENOSHA        CLOUDY    64  58  80 W7        30.06R
FOND DU LAC    PTSUNNY   64  57  78 NE9       30.06R
SHEBOYGAN      CLOUDY    65  54  67 N13       30.04R
WEST BEND      CLOUDY    61  54  77 N9        30.05R
JUNEAU         CLOUDY    61  56  83 NW6       30.08R
$$

LSZ147-162-041600-
LAKE SUPERIOR

STATION/POSITION TIME  TEMP    WIND        PRES    WAVE
                       AIR SEA DIR/SP/G            HT/PER
                 (UTC) (F)     (DEG/KT/KT) (MB)    (FT/S)
W MID LAKE BUOY  1450   39 35  230/  8/  8 1021.4R   1
DEVILS ISLAND    1500   43     240/ 11/ 13 1022.0R
PORT WING        1400   51     260/  6/  7 1021.3R
SAXON HARBOR     1400   53        CALM     1021.0R
$$

LMZ867-665-643>646-041600-
LAKE MICHIGAN

STATION/POSITION TIME  TEMP    WIND        PRES    WAVE
                       AIR SEA DIR/SP/G            HT/PER
                 (UTC) (F)     (DEG/KT/KT) (MB)    (FT/S)
CHAMBERS ISLAND  1400   56     310/  6/  8 1017.3R
NORTHPORT PIER   1400   54     310/ 13/ 15 1016.6R
SISTER BAY       1417   56      10/ 10/ 11   N/A
KEWAUNEE LAKESHO 1400   63     360/  8/ 13 1015.7R
SHEBOYGAN LAKESH 1500   60     360/ 14/ 15 1017.6R
PORT WASHINGTON  1400   64     340/  6/ 12 1017.3R
ATWATER BUOY     1500   51      80/  6/  6 1019.1R
MILWAUKEE LAKESH 1500   54      80/  8/ 10   N/A
KENOSHA   LAKESH 1500   64     270/  8/ 10 1017.9R
$$

TC  - TEMPERATURE IN CELSIUS
VSB - VISIBILITY IN STATUTE MILES
WCI - WIND CHILL INDEX
HX  - HEAT INDEX



USA.gov is the U.S. government's official web portal to all federal, state and local government web resources and services.